User: anonymous   Login
Location: Nag� el Ma?a??a
(24.0667°N, 32.8833°E)
Time: 17:43:53
(UTC+00:00)
Language:

USA 267 - Orbit

View from above orbital plane
View from above orbital plane
View from above satellite
View from above satellite

Ground track
Ground track

The orbit data is extracted from the following two-line orbital elements,

1 41334U 16010A   21331.72506736 0.00000000  00000-0  00000-0 0    02
2 41334 122.9964  86.8662 0004069 115.7328 244.2672 13.41428554    06
Epoch (UTC): 27 November 2021 17:24:05
Eccentricity: 0.0004069
inclination: 122.9964°
perigee height: 1101 km
apogee height: 1107 km
right ascension of ascending node: 86.8662°
argument of perigee: 115.7328°
revolutions per day: 13.41428554
mean anomaly at epoch: 244.2672°
orbit number at epoch: 0

The dashed part of the orbit path shows where the satellite is in the earth's shadow,  

DLR